Time,TemperatureF,DewpointF,PressureIn,WindDirection,WindDirectionDegrees,WindSpeedMPH,WindSpeedGustMPH,Humidity,HourlyPrecipIn,Conditions,Clouds,dailyrainin,SoftwareType,DateUTC
2018-01-18 00:02:00,49.6,49.0,30.18,ESE,113,2.0,-999.0,98,0.00,,,0.00,,2018-01-18 08:02:00,
2018-01-18 00:07:00,49.4,49.0,30.18,NNE,23,0.0,-999.0,98,0.00,,,0.00,,2018-01-18 08:07:00,
2018-01-18 00:13:00,49.2,49.0,30.19,ESE,113,0.0,-999.0,98,0.00,,,0.00,,2018-01-18 08:13:00,
2018-01-18 00:18:00,49.0,48.0,30.18,East,90,0.0,-999.0,98,0.00,,,0.00,,2018-01-18 08:18:00,
2018-01-18 00:24:00,48.6,48.0,30.17,SSW,203,1.0,-999.0,98,0.00,,,0.00,,2018-01-18 08:24:00,
2018-01-18 00:29:00,48.6,48.0,30.19,West,270,0.0,-999.0,98,0.00,,,0.00,,2018-01-18 08:29:00,
2018-01-18 00:35:00,48.4,48.0,30.18,ESE,113,0.0,-999.0,98,0.00,,,0.00,,2018-01-18 08:35:00,
2018-01-18 00:40:00,48.2,47.0,30.18,NNW,338,0.0,-999.0,98,0.00,,,0.00,,2018-01-18 08:40:00,
2018-01-18 00:46:00,47.7,47.0,30.17,North,0,2.0,-999.0,98,0.00,,,0.00,,2018-01-18 08:46:00,
2018-01-18 00:52:00,48.2,47.0,30.18,NW,315,3.0,-999.0,98,0.00,,,0.00,,2018-01-18 08:52:00,
2018-01-18 00:57:00,48.2,47.0,30.19,NW,315,2.0,-999.0,98,0.00,,,0.00,,2018-01-18 08:57:00,
2018-01-18 01:03:00,48.0,47.0,30.19,ENE,68,0.0,-999.0,98,0.00,,,0.00,,2018-01-18 09:03:00,
2018-01-18 01:08:00,47.7,47.0,30.19,WNW,293,0.0,-999.0,98,0.00,,,0.00,,2018-01-18 09:08:00,
2018-01-18 01:14:00,47.6,47.0,30.18,NNE,23,0.0,-999.0,98,0.00,,,0.00,,2018-01-18 09:14:00,
2018-01-18 01:19:00,47.3,47.0,30.19,SE,135,0.0,-999.0,98,0.00,,,0.00,,2018-01-18 09:19:00,
2018-01-18 01:25:00,46.9,46.0,30.19,ESE,113,0.0,-999.0,98,0.00,,,0.00,,2018-01-18 09:25:00,
2018-01-18 01:30:00,46.4,46.0,30.18,SSW,203,1.0,-999.0,98,0.00,,,0.00,,2018-01-18 09:30:00,
2018-01-18 01:36:00,46.4,46.0,30.19,WSW,248,3.0,-999.0,98,0.00,,,0.00,,2018-01-18 09:36:00,
2018-01-18 01:41:00,46.7,46.0,30.19,SW,225,2.0,-999.0,98,0.00,,,0.00,,2018-01-18 09:41:00,
2018-01-18 01:47:00,46.5,46.0,30.19,West,270,0.0,-999.0,98,0.00,,,0.00,,2018-01-18 09:47:00,
2018-01-18 01:53:00,46.5,46.0,30.18,WNW,293,2.0,-999.0,98,0.00,,,0.00,,2018-01-18 09:53:00,
2018-01-18 01:58:00,46.7,46.0,30.18,North,0,0.0,-999.0,98,0.00,,,0.00,,2018-01-18 09:58:00,
2018-01-18 02:04:00,46.9,46.0,30.19,WNW,293,2.0,-999.0,98,0.00,,,0.00,,2018-01-18 10:04:00,
2018-01-18 02:09:00,47.3,47.0,30.18,NNW,338,1.0,-999.0,98,0.00,,,0.00,,2018-01-18 10:09:00,
2018-01-18 02:15:00,46.9,46.0,30.18,West,270,0.0,-999.0,98,0.00,,,0.00,,2018-01-18 10:15:00,
2018-01-18 02:20:00,47.3,47.0,30.19,SW,225,2.0,-999.0,98,0.00,,,0.00,,2018-01-18 10:20:00,
2018-01-18 02:26:00,47.5,47.0,30.19,NNW,338,0.0,-999.0,98,0.00,,,0.00,,2018-01-18 10:26:00,
2018-01-18 02:31:00,47.6,47.0,30.18,NE,45,0.0,-999.0,98,0.00,,,0.00,,2018-01-18 10:31:00,
2018-01-18 02:37:00,47.6,47.0,30.18,ESE,113,0.0,-999.0,98,0.00,,,0.00,,2018-01-18 10:37:00,
2018-01-18 02:43:00,47.6,47.0,30.19,NNE,23,0.0,-999.0,98,0.00,,,0.00,,2018-01-18 10:43:00,
2018-01-18 02:48:00,47.5,47.0,30.18,ESE,113,0.0,-999.0,98,0.00,,,0.00,,2018-01-18 10:48:00,
2018-01-18 02:54:00,47.5,47.0,30.18,ESE,113,0.0,-999.0,98,0.00,,,0.00,,2018-01-18 10:54:00,
2018-01-18 02:59:00,47.3,47.0,30.17,East,90,0.0,-999.0,98,0.00,,,0.00,,2018-01-18 10:59:00,
2018-01-18 03:05:00,47.3,47.0,30.17,NE,45,0.0,-999.0,98,0.00,,,0.00,,2018-01-18 11:05:00,
2018-01-18 03:10:00,47.5,47.0,30.18,ESE,113,0.0,-999.0,98,0.00,,,0.00,,2018-01-18 11:10:00,
2018-01-18 03:16:00,47.6,47.0,30.16,ESE,113,0.0,-999.0,98,0.00,,,0.00,,2018-01-18 11:16:00,
2018-01-18 03:21:00,47.6,47.0,30.16,NE,45,0.0,-999.0,98,0.00,,,0.00,,2018-01-18 11:21:00,
2018-01-18 03:27:00,47.6,47.0,30.16,NNE,23,0.0,-999.0,98,0.00,,,0.00,,2018-01-18 11:27:00,
2018-01-18 03:32:00,47.6,47.0,30.16,ESE,113,0.0,-999.0,98,0.00,,,0.00,,2018-01-18 11:32:00,
2018-01-18 03:38:00,47.6,47.0,30.16,NNW,338,0.0,-999.0,98,0.00,,,0.00,,2018-01-18 11:38:00,
2018-01-18 03:44:00,47.7,47.0,30.15,ESE,113,2.0,-999.0,98,0.00,,,0.00,,2018-01-18 11:44:00,
2018-01-18 03:49:00,47.7,47.0,30.15,ESE,113,3.0,-999.0,98,0.00,,,0.00,,2018-01-18 11:49:00,
2018-01-18 03:55:00,47.7,47.0,30.16,ESE,113,4.0,-999.0,98,0.00,,,0.00,,2018-01-18 11:55:00,
2018-01-18 04:00:00,47.6,47.0,30.15,ESE,113,5.0,-999.0,98,0.00,,,0.00,,2018-01-18 12:00:00,
2018-01-18 04:06:00,46.9,46.0,30.15,ESE,113,4.0,-999.0,98,0.00,,,0.00,,2018-01-18 12:06:00,
2018-01-18 04:11:00,46.9,46.0,30.15,ESE,113,4.0,-999.0,98,0.00,,,0.00,,2018-01-18 12:11:00,
2018-01-18 04:17:00,46.9,46.0,30.14,ESE,113,4.0,-999.0,98,0.00,,,0.00,,2018-01-18 12:17:00,
2018-01-18 04:22:00,47.3,47.0,30.15,SE,135,1.0,-999.0,98,0.00,,,0.00,,2018-01-18 12:22:00,
2018-01-18 04:28:00,47.3,47.0,30.15,ESE,113,3.0,-999.0,98,0.00,,,0.00,,2018-01-18 12:28:00,
2018-01-18 04:33:00,47.6,47.0,30.15,ESE,113,3.0,-999.0,98,0.00,,,0.00,,2018-01-18 12:33:00,
2018-01-18 04:39:00,47.6,47.0,30.15,ESE,113,2.0,-999.0,98,0.00,,,0.00,,2018-01-18 12:39:00,
2018-01-18 04:44:00,48.0,47.0,30.14,ESE,113,3.0,-999.0,98,0.00,,,0.00,,2018-01-18 12:44:00,
2018-01-18 04:50:00,48.4,48.0,30.15,ESE,113,2.0,-999.0,98,0.00,,,0.00,,2018-01-18 12:50:00,
2018-01-18 04:55:00,48.6,48.0,30.13,SSE,158,3.0,-999.0,98,0.00,,,0.00,,2018-01-18 12:55:00,
2018-01-18 05:01:00,48.9,48.0,30.14,ESE,113,3.0,-999.0,98,0.00,,,0.00,,2018-01-18 13:01:00,
2018-01-18 05:07:00,48.9,48.0,30.13,ESE,113,4.0,-999.0,98,0.00,,,0.00,,2018-01-18 13:07:00,
2018-01-18 05:12:00,48.9,48.0,30.13,ESE,113,5.0,-999.0,98,0.00,,,0.00,,2018-01-18 13:12:00,
2018-01-18 05:18:00,48.9,48.0,30.13,ESE,113,3.0,-999.0,98,0.00,,,0.00,,2018-01-18 13:18:00,
2018-01-18 05:23:00,48.9,48.0,30.13,ESE,113,3.0,-999.0,98,0.00,,,0.00,,2018-01-18 13:23:00,
2018-01-18 05:29:00,48.9,48.0,30.12,ENE,68,2.0,-999.0,98,0.00,,,0.00,,2018-01-18 13:29:00,
2018-01-18 05:34:00,48.6,48.0,30.13,SSE,158,1.0,-999.0,98,0.00,,,0.00,,2018-01-18 13:34:00,
2018-01-18 05:40:00,48.6,48.0,30.13,NNW,338,0.0,-999.0,98,0.00,,,0.00,,2018-01-18 13:40:00,
2018-01-18 05:45:00,48.5,48.0,30.13,WNW,293,0.0,-999.0,98,0.00,,,0.00,,2018-01-18 13:45:00,
2018-01-18 05:51:00,48.2,47.0,30.14,SSW,203,3.0,-999.0,98,0.00,,,0.00,,2018-01-18 13:51:00,
2018-01-18 05:56:00,48.0,47.0,30.15,WSW,248,0.0,-999.0,98,0.00,,,0.00,,2018-01-18 13:56:00,
2018-01-18 06:02:00,47.7,47.0,30.15,WSW,248,0.0,-999.0,98,0.00,,,0.00,,2018-01-18 14:02:00,